GW3247 Weather Reports


Display with metric or nautical units.
time (UTC)temp
F
wind
direction
speed
MPH
gust
MPH
rain 1hr
in
rain 24hr
in
rain mn
in
humidity
%
barometer
mb
20260508050039 43 227 1.0 2.0 0.00 0.00 0.00 88 1022.0
20260508044537 42 232 1.0 2.0 0.00 0.00 0.00 88 1021.9
20260508043032 41 226 1.0 2.0 0.00 0.00 0.00 89 1021.8
20260508041528 40 221 2.0 3.0 0.00 0.00 0.00 89 1021.7
20260508040026 39 226 2.0 3.0 0.00 0.00 0.00 89 1021.6
20260508034537 39 225 1.0 3.0 0.00 0.00 0.00 88 1021.6
20260508033023 38 209 1.0 3.0 0.00 0.00 0.00 88 1021.5
20260508031522 39 238 3.0 4.0 0.00 0.00 0.00 88 1021.5
20260508030020 39 233 3.0 4.0 0.00 0.00 0.00 88 1021.4
20260508024540 39 240 3.0 4.0 0.00 0.00 0.00 88 1021.2
20260508023015 39 232 2.0 3.0 0.00 0.00 0.00 88 1021.2
20260508021519 39 219 2.0 4.0 0.00 0.00 0.00 88 1021.1
20260508020013 40 216 2.0 3.0 0.00 0.00 0.00 88 1021.0
20260508014512 40 227 2.0 4.0 0.00 0.00 0.00 88 1020.9
20260508013013 39 231 2.0 4.0 0.00 0.00 0.00 88 1020.9
20260508011506 39 238 2.0 4.0 0.00 0.00 0.00 87 1020.8
20260508010008 39 245 2.0 4.0 0.00 0.00 0.00 87 1020.8
20260508004503 40 249 2.0 3.0 0.00 0.00 0.00 86 1020.7
20260508003001 40 231 2.0 4.0 0.00 0.00 0.00 86 1020.6
20260508001600 40 242 2.0 3.0 0.00 0.00 0.00 86 1020.7
20260508000058 40 233 2.0 3.0 0.00 0.00 0.00 85 1020.6
20260507234558 41 240 2.0 3.0 0.00 0.00 0.00 84 1020.6
20260507233058 41 231 2.0 3.0 0.00 0.00 0.00 83 1020.6
20260507231555 42 236 1.0 3.0 0.00 0.00 0.00 83 1020.6
20260507230105 42 236 1.0 2.0 0.00 0.00 0.00 82 1020.5
20260507224552 42 236 1.0 2.0 0.00 0.00 0.00 81 1020.4
20260507223044 42 245 1.0 2.0 0.00 0.00 0.00 80 1020.4
20260507221544 43 233 1.0 3.0 0.00 0.00 0.00 79 1020.4
20260507220039 43 224 1.0 3.0 0.00 0.00 0.00 78 1020.3
20260507214538 44 226 1.0 3.0 0.00 0.00 0.00 76 1020.2
20260507213037 46 250 0.0 2.0 0.00 0.00 0.00 75 1020.1
20260507211535 47 219 0.0 1.0 0.00 0.00 0.00 71 1020.2
20260507210038 51 46 0.0 5.0 0.00 0.00 0.00 69 1019.9
20260507204532 51 48 4.0 5.0 0.00 0.00 0.00 70 1019.8
20260507203051 51 60 3.0 5.0 0.00 0.00 0.00 71 1019.7
20260507201532 51 53 4.0 7.0 0.00 0.00 0.00 71 1019.6
20260507200028 51 39 5.0 8.0 0.00 0.00 0.00 73 1019.4
20260507194529 51 46 5.0 8.0 0.00 0.00 0.00 72 1019.4
20260507193026 51 41 4.0 8.0 0.00 0.00 0.00 71 1019.2
20260507191523 51 34 6.0 8.0 0.00 0.00 0.00 71 1019.1
20260507190022 52 41 5.0 8.0 0.00 0.00 0.00 71 1018.9
20260507184523 52 56 5.0 8.0 0.00 0.00 0.00 67 1018.7
20260507183018 52 35 6.0 9.0 0.00 0.00 0.00 69 1018.6
20260507181517 52 35 5.0 9.0 0.00 0.00 0.00 69 1018.6
20260507180021 52 37 7.0 9.0 0.00 0.00 0.00 67 1018.4
20260507174523 52 356 7.0 11.0 0.00 0.00 0.00 68 1018.3
20260507173031 52 23 8.0 12.0 0.00 0.00 0.00 69 1018.2
20260507171520 52 345 8.0 12.0 0.00 0.00 0.00 67 1018.1
20260507170013 52 28 7.0 14.0 0.00 0.00 0.00 68 1017.8
20260507164612 52 345 11.0 15.0 0.00 0.00 0.00 69 1017.8
20260507163009 52 338 10.0 13.0 0.00 0.00 0.00 66 1017.8
20260507161508 52 356 10.0 12.0 0.00 0.00 0.00 67 1017.8
20260507160011 52 340 8.0 11.0 0.00 0.00 0.00 68 1018.0
20260507154508 52 43 8.0 11.0 0.00 0.00 0.00 69 1018.0
20260507153007 52 23 7.0 11.0 0.00 0.00 0.00 70 1018.0
20260507151505 51 5 9.0 12.0 0.00 0.00 0.00 70 1017.9
20260507150005 52 347 9.0 11.0 0.00 0.00 0.00 71 1017.8
20260507144505 52 7 8.0 11.0 0.00 0.00 0.00 71 1017.9
20260507143003 52 39 7.0 11.0 0.00 0.00 0.00 71 1017.9
20260507141502 52 8 7.0 11.0 0.00 0.00 0.00 73 1017.9
20260507140001 52 24 7.0 11.0 0.00 0.00 0.00 73 1018.0
20260507134600 52 341 7.0 10.0 0.00 0.00 0.00 73 1018.0
20260507133144 51 23 8.0 11.0 0.00 0.00 0.00 73 1018.0
20260507131559 51 356 6.0 8.0 0.00 0.00 0.00 74 1017.9
20260507130104 51 2 7.0 9.0 0.00 0.00 0.00 73 1017.8
20260507124605 51 32 6.0 9.0 0.00 0.00 0.00 74 1017.7
20260507123055 51 34 6.0 9.0 0.00 0.00 0.00 74 1017.7
20260507121553 51 6 6.0 9.0 0.00 0.00 0.00 74 1017.6
20260507120053 51 30 6.0 8.0 0.00 0.00 0.00 74 1017.6
20260507114600 51 13 6.0 8.0 0.00 0.00 0.00 75 1017.6
20260507113050 51 34 6.0 9.0 0.00 0.00 0.00 76 1017.6
20260507111549 51 45 6.0 9.0 0.00 0.00 0.00 76 1017.5
20260507110049 51 28 6.0 9.0 0.00 0.00 0.00 77 1017.5
20260507104547 51 37 5.0 9.0 0.00 0.00 0.00 77 1017.4
20260507103051 51 25 5.0 8.0 0.00 0.00 0.00 77 1017.4
20260507101548 51 341 5.0 8.0 0.00 0.00 0.00 77 1017.3
20260507100044 51 26 5.0 10.0 0.00 0.00 0.00 77 1017.2
20260507094554 51 20 6.0 10.0 0.00 0.00 0.00 77 1017.2
20260507093042 51 40 6.0 9.0 0.00 0.00 0.00 78 1017.1
20260507091540 51 349 8.0 11.0 0.00 0.00 0.00 77 1017.0
20260507090042 51 339 9.0 12.0 0.00 0.00 0.00 77 1016.8
20260507084540 51 357 9.0 13.0 0.00 0.00 0.00 77 1016.7
20260507083038 51 352 9.0 11.0 0.00 0.00 0.00 77 1016.6
20260507081539 51 23 8.0 11.0 0.00 0.00 0.00 78 1016.4
20260507080034 51 6 6.0 8.0 0.00 0.00 0.00 78 1016.3
20260507074533 51 353 2.0 4.0 0.00 0.00 0.00 77 1016.3
20260507073032 50 338 3.0 6.0 0.00 0.00 0.00 78 1016.2
20260507071529 50 33 3.0 5.0 0.00 0.00 0.00 77 1016.0
20260507070039 50 324 1.0 5.0 0.00 0.00 0.00 76 1015.9
20260507064622 50 312 2.0 6.0 0.00 0.00 0.00 75 1015.8
20260507063020 49 273 4.0 9.0 0.00 0.00 0.00 76 1015.7
20260507061515 48 276 1.0 6.0 0.00 0.00 0.00 79 1015.6
20260507060019 47 269 1.0 4.0 0.00 0.00 0.00 82 1015.7
20260507054507 46 253 1.0 5.0 0.00 0.00 0.00 84 1015.6
20260507053005 45 250 1.0 4.0 0.00 0.00 0.00 86 1015.5
20260507051501 44 245 1.0 3.0 0.00 0.00 0.00 88 1015.3